Regional Weather Roundup
Issued by NWS Cleveland, OH

Home | Current Version | Previous Version | Graphics & Text | Print | Product List | Glossary On
Versions: 1 2 3 4 5 6 7 8 9 10 11 12 13 14 15 16 17 18 19 20 21 22 23 24 25 26 27 28 29 30 31 32 33 34 35 36 37 38 39 40 41 42 43 44 45 46 47 48 49 50
000
ASUS41 KCLE 201910
RWRCLE
OHIO REGIONAL WEATHER ROUNDUP
NATIONAL WEATHER SERVICE CLEVELAND, OH
200 PM EST MON FEB 20 2017

NOTE: "FAIR" INDICATES FEW OR NO CLOUDS BELOW 12,000 FEET WITH NO
SIGNIFICANT WEATHER AND/OR OBSTRUCTIONS TO VISIBILITY.

OHZ001>008-015>018-024>027-034-035-043-044-202000-
   NORTHWEST OHIO

CITY           SKY/WX    TMP DP  RH WIND       PRES   REMARKS
DEFIANCE       NOT AVBL
FINDLAY        SUNNY     63  35  35 E10G17    30.17F
TOLEDO EXPRESS SUNNY     56  36  47 E13       30.20F
TOLEDO EXEC    PTSUNNY   53  37  54 E12       30.22F
LIMA           SUNNY     65  39  38 VRB7      30.15F
$$

OHZ009>014-019>023-028>033-038-089-202000-
   NORTHEAST OHIO

CITY           SKY/WX    TMP DP  RH WIND       PRES   REMARKS
CLE-HOPKINS    CLOUDY    54  31  41 N8        30.26F
CLE-LAKEFRONT  PTSUNNY   39  34  82 NE15      30.24F
CUY CO. ARPT   MOSUNNY   55  36  47 N8        30.24F
LORAIN-ELYRIA  CLOUDY    58  34  40 E8        30.23F
ASHTABULA      SUNNY     53  32  44 E7        30.25F
AKRON-CANTON   PTSUNNY   59  33  37 SE7       30.22F
WOOSTER        MOSUNNY   57  40  52 S7        30.23F
MANSFIELD      PTSUNNY   60  38  43 E7        30.21F
YOUNGSTOWN     MOSUNNY   56  29  35 VRB3      30.25F
$$

OHZ042-051>053-060>062-070>072-077>081-202000-
  SOUTHWEST OHIO

CITY           SKY/WX    TMP DP  RH WIND       PRES   REMARKS
CINC-COVINGTON CLOUDY    59  49  69 SE10      30.16F
CINC-LUNKEN    PTSUNNY   61  51  70 VRB3      30.18F
HAMILTON       MOSUNNY   64  47  53 E6        30.18F
DAYTON         PTSUNNY   62  45  53 SE10G20   30.18F
WRIGHT-PAT AFB SUNNY     64  46  50 SE10      30.17F
DAYTON GENERAL CLOUDY    63  45  51 SE8       30.16F
WILMINGTON     CLOUDY    61  46  57 SE8       30.18F
$$

OHZ036-037-039>041-045>050-054>059-063>069-073>076-082>088-202000-
  CENTRAL AND SOUTHEAST OHIO

CITY           SKY/WX    TMP DP  RH WIND       PRES   REMARKS
COLUMBUS       PTSUNNY   59  45  59 SE8       30.20F
OSU AIRPORT    MOSUNNY   56  46  69 E8        30.19F
BOLTON FIELD   SUNNY     52  52 100 E5        30.21F
RICKENBACK AFB MOSUNNY   51  51 100 NE7       30.19F
NEWARK         SUNNY     56  45  66 E6        30.21F
MARION         MOSUNNY   63  37  38 S8        30.19F
LANCASTER      MOSUNNY   63  46  54 MISG      30.20F
ZANESVILLE     SUNNY     53  45  74 E6        30.23F
NEW PHILLY     NOT AVBL
$$




USA.gov is the U.S. government's official web portal to all federal, state and local government web resources and services.